DW2893 Weather Reports


Display with metric or nautical units.
time (UTC)temp
F
wind
direction
speed
MPH
gust
MPH
rain 1hr
in
rain 24hr
in
rain mn
in
humidity
%
barometer
mb
20260902020804 92 119 2.0 7.0 0.00 0.00 0.00 50 1012.0
20260902020305 92 110 4.0 8.0 0.00 0.00 0.00 50 1011.8
20260902015306 92 136 3.0 6.0 0.00 0.00 0.00 50 1011.6
20260902014305 93 137 2.0 3.0 0.00 0.00 0.00 49 1011.5
20260902013304 93 137 3.0 6.0 0.00 0.00 0.00 48 1011.4
20260902012804 93 132 3.0 6.0 0.00 0.00 0.00 48 1011.4
20260902012309 93 124 3.0 6.0 0.00 0.00 0.00 48 1011.4
20260902011805 93 135 4.0 6.0 0.00 0.00 0.00 47 1011.4
20260902010804 94 131 2.0 5.0 0.00 0.00 0.00 47 1011.2
20260902005306 94 112 3.0 6.0 0.00 0.00 0.00 46 1011.3
20260902004804 95 94 3.0 6.0 0.00 0.00 0.00 45 1011.4
20260902003805 95 140 4.0 8.0 0.00 0.00 0.00 45 1011.4
20260902001808 96 106 3.0 6.0 0.00 0.00 0.00 45 1011.6
20260902001309 96 94 5.0 7.0 0.00 0.00 0.00 45 1011.6
20260901235308 96 119 3.0 12.0 0.00 0.00 0.00 44 1011.5
20260901234308 97 115 6.0 12.0 0.00 0.00 0.00 44 1011.5
20260901233808 97 100 6.0 10.0 0.00 0.00 0.00 44 1011.5
20260901231308 97 84 7.0 13.0 0.00 0.00 0.00 44 1011.8
20260901230808 97 18 8.0 12.0 0.00 0.00 0.00 43 1011.8
20260901230308 97 102 7.0 17.0 0.00 0.00 0.00 43 1011.7
20260901225808 97 83 5.0 9.0 0.00 0.00 0.00 42 1011.7
20260901224308 97 89 3.0 8.0 0.00 0.00 0.00 42 1011.8
20260901222808 99 97 7.0 13.0 0.00 0.00 0.00 41 1011.7
20260901221308 100 54 2.0 5.0 0.00 0.00 0.00 40 1011.9
20260901220808 100 84 5.0 7.0 0.00 0.00 0.00 41 1011.9
20260901215808 100 109 3.0 6.0 0.00 0.00 0.00 41 1012.0
20260901215308 100 79 4.0 10.0 0.00 0.00 0.00 41 1012.0
20260901213308 100 88 6.0 13.0 0.00 0.00 0.00 41 1012.2
20260901211308 99 124 6.0 9.0 0.00 0.00 0.00 41 1012.3
20260901205808 99 139 0.0 6.0 0.00 0.00 0.00 42 1012.3
20260901204808 99 95 2.0 8.0 0.00 0.00 0.00 42 1012.7
20260901202808 99 104 7.0 14.0 0.00 0.00 0.00 42 1012.7
20260901201307 99 84 3.0 10.0 0.00 0.00 0.00 44 1012.8
20260901191808 97 105 3.0 12.0 0.00 0.00 0.00 45 1013.5
20260901185307 97 117 4.0 8.0 0.00 0.00 0.00 46 1014.0
20260901184307 98 124 3.0 12.0 0.00 0.00 0.00 44 1014.3
20260901183807 97 34 5.0 12.0 0.00 0.00 0.00 45 1014.3
20260901183307 97 108 5.0 9.0 0.00 0.00 0.00 46 1014.3
20260901182807 97 82 2.0 12.0 0.00 0.00 0.00 47 1014.3
20260901182307 97 91 4.0 12.0 0.00 0.00 0.00 47 1014.9
20260901181307 96 119 5.0 9.0 0.00 0.00 0.00 48 1014.9
20260901174307 96 95 3.0 6.0 0.00 0.00 0.00 49 1015.1
20260901171307 96 188 3.0 7.0 0.00 0.00 0.00 48 1015.6
20260901170807 95 141 3.0 10.0 0.00 0.00 0.00 50 1015.9
20260901164807 95 141 2.0 8.0 0.00 0.00 0.00 51 1015.9
20260901164307 95 208 1.0 8.0 0.00 0.00 0.00 52 1015.9
20260901163307 94 162 4.0 12.0 0.00 0.00 0.00 53 1015.9
20260901161807 93 15 3.0 6.0 0.00 0.00 0.00 53 1015.9
20260901161306 94 237 2.0 8.0 0.00 0.00 0.00 54 1015.9
20260901160307 92 240 4.0 7.0 0.00 0.00 0.00 55 1015.9
20260901154307 92 245 2.0 6.0 0.00 0.00 0.00 55 1015.8
20260901151806 90 203 3.0 6.0 0.00 0.00 0.00 59 1015.8
20260901150806 89 222 2.0 6.0 0.00 0.00 0.00 60 1015.8
20260901145307 88 167 3.0 8.0 0.00 0.00 0.00 63 1015.9
20260901144806 87 165 5.0 7.0 0.00 0.00 0.00 64 1015.9
20260901144306 87 171 3.0 6.0 0.00 0.00 0.00 65 1015.9
20260901143807 87 206 2.0 3.0 0.00 0.00 0.00 65 1015.9
20260901143306 86 215 2.0 7.0 0.00 0.00 0.00 66 1015.9
20260901142807 86 183 3.0 8.0 0.00 0.00 0.00 66 1015.9
20260901142306 86 197 3.0 5.0 0.00 0.00 0.00 67 1015.9
20260901141807 85 172 4.0 7.0 0.00 0.00 0.00 67 1015.9
20260901135306 84 124 5.0 8.0 0.00 0.00 0.00 69 1016.0
20260901134307 83 154 5.0 9.0 0.00 0.00 0.00 70 1015.9
20260901133806 83 155 4.0 6.0 0.00 0.00 0.00 70 1015.8
20260901132806 82 156 3.0 7.0 0.00 0.00 0.00 71 1015.9
20260901132307 82 150 3.0 8.0 0.00 0.00 0.00 71 1015.9
20260901131307 81 148 3.0 6.0 0.00 0.00 0.00 72 1015.7
20260901130306 81 150 3.0 5.0 0.00 0.00 0.00 73 1015.6
20260901125806 80 148 4.0 6.0 0.00 0.00 0.00 73 1015.5
20260901125309 80 70 3.0 5.0 0.00 0.00 0.00 73 1015.5
20260901124806 80 155 3.0 5.0 0.00 0.00 0.00 73 1015.2
20260901122806 80 157 0.0 1.0 0.00 0.00 0.00 73 1015.0
20260901121306 80 156 1.0 3.0 0.00 0.00 0.00 72 1015.0
20260901120306 80 157 2.0 6.0 0.00 0.00 0.00 71 1014.9
20260901115806 80 157 2.0 3.0 0.00 0.00 0.00 71 1014.9
20260901114306 81 157 2.0 3.0 0.00 0.00 0.00 71 1014.7
20260901110806 81 157 3.0 3.0 0.00 0.00 0.00 69 1014.3
20260901110307 81 157 3.0 5.0 0.00 0.00 0.00 68 1014.3
20260901105807 82 154 3.0 6.0 0.00 0.00 0.00 68 1014.3
20260901105306 82 153 2.0 5.0 0.00 0.00 0.00 68 1014.3
20260901104806 82 152 2.0 3.0 0.00 0.00 0.00 68 1014.5
20260901103806 82 129 4.0 7.0 0.00 0.00 0.00 67 1014.5
20260901102306 82 177 3.0 5.0 0.00 0.00 0.00 67 1014.4
20260901100806 83 157 3.0 6.0 0.00 0.00 0.00 66 1014.5
20260901100306 83 157 3.0 6.0 0.00 0.00 0.00 66 1014.6
20260901095806 83 155 4.0 6.0 0.00 0.00 0.00 66 1014.6
20260901093806 83 156 2.0 3.0 0.00 0.00 0.00 64 1014.6
20260901093305 84 158 2.0 5.0 0.00 0.00 0.00 64 1014.6
20260901092806 84 159 2.0 3.0 0.00 0.00 0.00 64 1014.6
20260901092306 84 159 1.0 3.0 0.00 0.00 0.00 63 1014.6
20260901091306 84 158 3.0 6.0 0.00 0.00 0.00 63 1014.6
20260901085805 84 208 5.0 9.0 0.00 0.00 0.00 63 1014.1
20260901085306 84 245 4.0 10.0 0.00 0.00 0.00 63 1014.1
20260901084805 84 273 6.0 12.0 0.00 0.00 0.00 62 1014.1
20260901083806 84 212 5.0 8.0 0.00 0.00 0.00 61 1014.2
20260901082805 84 345 5.0 9.0 0.00 0.00 0.00 60 1014.2
20260901082306 85 20 5.0 7.0 0.00 0.00 0.00 60 1014.2
20260901081305 85 42 5.0 9.0 0.00 0.00 0.00 60 1014.1
20260901080806 85 47 5.0 8.0 0.00 0.00 0.00 60 1014.2
20260901080306 85 137 5.0 8.0 0.00 0.00 0.00 60 1014.2
20260901074805 85 98 5.0 9.0 0.00 0.00 0.00 60 1014.2
20260901074305 85 47 5.0 8.0 0.00 0.00 0.00 59 1014.2
20260901073305 85 105 5.0 7.0 0.00 0.00 0.00 59 1014.2
20260901072309 85 119 4.0 8.0 0.00 0.00 0.00 59 1014.2
20260901071805 85 24 5.0 8.0 0.00 0.00 0.00 59 1014.2
20260901070805 85 105 4.0 8.0 0.00 0.00 0.00 58 1014.3
20260901070305 85 129 5.0 8.0 0.00 0.00 0.00 58 1014.3
20260901065805 86 123 3.0 7.0 0.00 0.00 0.00 57 1014.3
20260901065306 86 127 4.0 8.0 0.00 0.00 0.00 57 1014.1
20260901064805 86 126 3.0 7.0 0.00 0.00 0.00 57 1014.2
20260901064305 86 13 5.0 8.0 0.00 0.00 0.00 57 1014.1
20260901063805 86 143 3.0 6.0 0.00 0.00 0.00 56 1014.0
20260901061805 86 102 4.0 8.0 0.00 0.00 0.00 55 1013.8
20260901060305 86 122 5.0 9.0 0.00 0.00 0.00 54 1013.8
20260901055805 87 131 5.0 7.0 0.00 0.00 0.00 54 1013.8
20260901054805 87 137 3.0 7.0 0.00 0.00 0.00 53 1013.6
20260901054305 87 130 3.0 8.0 0.00 0.00 0.00 53 1013.6
20260901050942 87 128 3.0 6.0 0.00 0.00 0.00 51 1013.3
20260901050306 87 141 3.0 6.0 0.00 0.00 0.00 51 1013.3
20260901045805 87 128 4.0 8.0 0.00 0.00 0.00 50 1013.3
20260901044305 87 102 4.0 8.0 0.00 0.00 0.00 50 1013.1
20260901043805 88 110 2.0 3.0 0.00 0.00 0.00 50 1013.1
20260901043305 88 126 2.0 5.0 0.00 0.00 0.00 49 1013.1
20260901042306 88 112 3.0 7.0 0.00 0.00 0.00 49 1013.1
20260901041304 88 113 3.0 5.0 0.00 0.00 0.00 50 1013.1
20260901035306 88 112 2.0 3.0 0.00 0.00 0.00 49 1013.1
20260901034804 89 111 1.0 3.0 0.00 0.00 0.00 48 1013.1
20260901034304 89 111 1.0 3.0 0.00 0.00 0.00 48 1013.1
20260901033804 89 111 2.0 3.0 0.00 0.00 0.00 47 1013.0
20260901032804 90 110 3.0 6.0 0.00 0.00 0.00 47 1013.0
20260901032306 90 148 2.0 5.0 0.00 0.00 0.00 46 1013.0
20260901030304 91 146 2.0 5.0 0.00 0.00 0.00 43 1012.8
20260901025805 91 148 2.0 3.0 0.00 0.00 0.00 43 1012.8